contact:dominique.lefevre@mio.osupytheas.fr, maurice.libes@osupytheas.fr
Project:EMSO Ligure-ouest http://www.emso-fr.org/EMSO-France
Sensor Aquadopp, line 13 Serial AQD14315 
DOI : "https://doi.org/10.17882/74513; https://doi.org/10.17882/83244" 
Title:EMSO Ligure Ouest : Data ligne ALBATROSS capteur AQUADOPP - deploiement 2021
Id,Date,Profondeur,Latitude,Longitude,X_East,Y_North,Z_Up,Amplitude_X,Amplitude_Y,Amplitude_Z,Batterie,SoundSpeed,Heading,Pitch,Roll,Pressure,Temperature,Speed,Direction
, , m, degrees North, degrees East, m.s-1, m.s-1,m.s-1, 1, 1, 1, Volt, m.s-1, degree, degree, degree, dbar, degree_C, m.s-1, degree
13,2023-03-25T23:30:00,2400.0,42.79,6.0312,0.088,0.011,-0.002,68.0,60.0,63.0,12.2,1504.9,97.4,-1.3,-0.9,2393.093,13.34,0.088,82.9
13,2023-03-26T00:00:00,2400.0,42.79,6.0312,0.094,0.008,-0.033,72.0,63.0,67.0,12.2,1504.9,100.3,-1.8,-0.5,2393.033,13.34,0.094,85.1
13,2023-03-26T00:30:00,2400.0,42.79,6.0312,0.097,-0.008,-0.019,71.0,62.0,67.0,12.3,1504.9,113.7,-1.4,-0.9,2393.053,13.34,0.097,94.7
13,2023-03-26T01:00:00,2400.0,42.79,6.0312,0.085,0.018,-0.025,71.0,65.0,67.0,12.2,1504.9,95.0,-1.6,-0.6,2393.001,13.34,0.086,78.0
13,2023-03-26T01:30:00,2400.0,42.79,6.0312,0.105,0.012,0.003,73.0,64.0,65.0,12.2,1504.9,105.6,-1.1,-0.8,2393.004,13.34,0.105,83.5
13,2023-03-26T02:00:00,2400.0,42.79,6.0312,0.084,-0.011,-0.02,69.0,61.0,62.0,12.2,1504.9,114.7,-2.0,-0.5,2393.0,13.34,0.084,97.5
13,2023-03-26T02:30:00,2400.0,42.79,6.0312,0.114,0.028,-0.02,71.0,62.0,63.0,12.2,1504.9,102.3,-0.7,-0.7,2392.98,13.34,0.117,76.2
13,2023-03-26T03:00:00,2400.0,42.79,6.0312,0.088,-0.03,-0.008,71.0,63.0,67.0,12.2,1504.9,108.8,-1.7,-0.8,2392.959,13.34,0.092,108.8
13,2023-03-26T03:30:00,2400.0,42.79,6.0312,0.084,-0.019,0.0,73.0,64.0,63.0,12.2,1504.9,108.0,-1.2,-0.7,2392.946,13.34,0.086,102.7
13,2023-03-26T04:00:00,2400.0,42.79,6.0312,0.084,-0.01,-0.019,70.0,65.0,65.0,12.2,1504.9,114.5,-1.4,-1.2,2392.991,13.34,0.084,96.8
13,2023-03-26T04:30:00,2400.0,42.79,6.0312,0.082,-0.032,-0.029,71.0,63.0,64.0,12.2,1504.9,116.9,-1.0,-1.3,2392.971,13.34,0.088,111.3
13,2023-03-26T05:00:00,2400.0,42.79,6.0312,0.101,0.004,-0.016,71.0,62.0,66.0,12.2,1504.9,105.6,-2.2,-0.8,2392.936,13.34,0.101,87.7
13,2023-03-26T05:30:00,2400.0,42.79,6.0312,0.073,-0.016,-0.013,72.0,64.0,67.0,12.2,1504.9,117.0,-1.1,-0.9,2392.948,13.34,0.074,102.4
13,2023-03-26T06:00:00,2400.0,42.79,6.0312,0.105,0.0,-0.029,69.0,62.0,64.0,12.2,1504.9,98.9,-1.6,-0.8,2392.946,13.34,0.105,90.0
13,2023-03-26T06:30:00,2400.0,42.79,6.0312,0.082,-0.008,-0.005,67.0,59.0,63.0,12.2,1504.9,109.7,-1.4,-0.9,2393.002,13.34,0.082,95.6
13,2023-03-26T07:00:00,2400.0,42.79,6.0312,0.095,0.015,-0.035,64.0,59.0,60.0,12.2,1504.9,96.6,-1.3,-0.4,2392.99,13.34,0.096,81.0
13,2023-03-26T07:30:00,2400.0,42.79,6.0312,0.088,0.001,-0.015,61.0,59.0,59.0,12.2,1504.9,100.5,-1.4,-1.1,2393.018,13.34,0.088,89.4
13,2023-03-26T08:00:00,2400.0,42.79,6.0312,0.101,-0.007,-0.004,66.0,57.0,59.0,12.2,1504.9,96.0,-1.2,-0.5,2393.057,13.34,0.101,94.0
13,2023-03-26T08:30:00,2400.0,42.79,6.0312,0.078,0.001,-0.016,63.0,58.0,60.0,12.2,1504.9,90.9,-1.6,-1.1,2393.115,13.34,0.078,89.3
13,2023-03-26T09:00:00,2400.0,42.79,6.0312,0.092,0.006,-0.023,64.0,56.0,62.0,12.2,1504.9,98.3,-1.7,-1.1,2393.094,13.34,0.092,86.3
13,2023-03-26T09:30:00,2400.0,42.79,6.0312,0.09,0.0,-0.018,64.0,57.0,63.0,12.2,1504.9,90.7,-1.6,-0.9,2393.109,13.34,0.089,90.0
13,2023-03-26T10:00:00,2400.0,42.79,6.0312,0.105,0.029,-0.021,65.0,60.0,59.0,12.2,1504.9,89.5,-1.5,-0.4,2393.107,13.34,0.108,74.6
13,2023-03-26T10:30:00,2400.0,42.79,6.0312,0.083,0.027,0.003,66.0,58.0,61.0,12.2,1504.9,84.6,-1.5,-0.7,2393.097,13.34,0.087,72.0
13,2023-03-26T11:00:00,2400.0,42.79,6.0312,0.069,-0.029,-0.031,64.0,59.0,57.0,12.2,1504.9,112.1,-0.7,-1.7,2393.09,13.34,0.074,112.8
13,2023-03-26T11:30:00,2400.0,42.79,6.0312,0.099,0.0,-0.01,64.0,56.0,62.0,12.2,1504.9,97.1,-2.7,-0.8,2393.085,13.34,0.099,90.0
13,2023-03-26T12:30:00,2400.0,42.79,6.0312,0.058,0.003,-0.028,64.0,55.0,59.0,12.2,1504.9,93.3,-1.8,-0.7,2393.014,13.34,0.058,87.0
13,2023-03-26T13:00:00,2400.0,42.79,6.0312,0.088,0.019,0.008,67.0,60.0,61.0,12.2,1504.9,98.7,-1.1,-1.0,2393.02,13.34,0.09,77.8
13,2023-03-26T13:30:00,2400.0,42.79,6.0312,0.073,-0.022,0.008,66.0,60.0,59.0,12.2,1504.9,101.8,-1.8,-0.7,2393.008,13.34,0.076,106.8
13,2023-03-26T14:00:00,2400.0,42.79,6.0312,0.072,0.01,-0.009,64.0,58.0,57.0,12.2,1504.9,100.0,-2.2,-0.7,2392.962,13.34,0.072,82.1
13,2023-03-26T14:30:00,2400.0,42.79,6.0312,0.095,0.008,-0.029,66.0,59.0,60.0,12.2,1504.9,104.7,-2.0,-0.9,2392.979,13.34,0.095,85.2
13,2023-03-26T15:00:00,2400.0,42.79,6.0312,0.09,0.025,0.007,69.0,63.0,64.0,12.2,1504.9,100.7,-1.4,-0.7,2392.979,13.34,0.093,74.5
13,2023-03-26T15:30:00,2400.0,42.79,6.0312,0.067,0.0,0.003,62.0,56.0,58.0,12.2,1504.9,96.3,-1.0,-1.0,2392.976,13.34,0.066,90.0
13,2023-03-26T16:00:00,2400.0,42.79,6.0312,0.067,0.03,-0.017,62.0,56.0,62.0,12.2,1504.9,97.4,-1.6,-0.9,2392.925,13.34,0.073,65.9
13,2023-03-26T16:30:00,2400.0,42.79,6.0312,0.104,0.045,-0.013,68.0,60.0,62.0,12.2,1504.9,89.3,-1.5,-0.7,2392.942,13.34,0.113,66.6
13,2023-03-26T17:00:00,2400.0,42.79,6.0312,0.091,-0.006,0.01,71.0,61.0,64.0,12.2,1504.9,107.9,-2.4,-0.9,2392.972,13.34,0.091,93.8
13,2023-03-26T17:30:00,2400.0,42.79,6.0312,0.096,-0.006,0.003,65.0,60.0,60.0,12.2,1504.9,104.3,-2.0,-1.0,2392.92,13.34,0.096,93.6
13,2023-03-26T18:00:00,2400.0,42.79,6.0312,0.07,0.056,-0.02,64.0,60.0,62.0,12.2,1504.9,81.2,-2.0,-0.4,2393.003,13.34,0.089,51.3
13,2023-03-26T18:30:00,2400.0,42.79,6.0312,0.084,-0.016,-0.002,65.0,58.0,60.0,12.2,1504.9,108.3,-1.3,-1.1,2392.947,13.34,0.085,100.8
13,2023-03-26T19:00:00,2400.0,42.79,6.0312,0.1,0.012,0.01,66.0,58.0,63.0,12.2,1504.9,100.7,-1.8,-0.4,2392.989,13.34,0.1,83.2
13,2023-03-26T19:30:00,2400.0,42.79,6.0312,0.108,0.027,-0.012,69.0,61.0,63.0,12.2,1504.9,93.5,-2.0,-0.2,2393.037,13.34,0.111,76.0
13,2023-03-26T20:00:00,2400.0,42.79,6.0312,0.12,0.004,-0.003,68.0,57.0,60.0,12.2,1504.9,101.2,-1.9,-0.9,2393.027,13.34,0.12,88.1
13,2023-03-26T20:30:00,2400.0,42.79,6.0312,0.099,-0.019,0.008,67.0,60.0,61.0,12.2,1504.9,106.4,-1.6,-0.7,2393.059,13.34,0.1,100.9
13,2023-03-26T21:00:00,2400.0,42.79,6.0312,0.086,0.036,-0.012,71.0,61.0,63.0,12.2,1504.9,88.2,-1.7,-0.2,2393.121,13.34,0.093,67.3
13,2023-03-26T21:30:00,2400.0,42.79,6.0312,0.099,-0.012,-0.014,66.0,59.0,64.0,12.2,1504.9,101.4,-1.8,-0.8,2393.077,13.34,0.099,96.9
13,2023-03-26T22:00:00,2400.0,42.79,6.0312,0.109,0.012,0.007,69.0,62.0,63.0,12.2,1504.9,99.3,-1.9,-1.0,2393.118,13.34,0.109,83.7
13,2023-03-26T22:30:00,2400.0,42.79,6.0312,0.102,-0.008,-0.014,66.0,61.0,64.0,12.2,1504.9,108.1,-2.6,-1.0,2393.043,13.34,0.102,94.5
13,2023-03-26T23:00:00,2400.0,42.79,6.0312,0.112,-0.02,-0.026,70.0,61.0,64.0,12.2,1504.9,99.3,-1.7,-1.1,2393.125,13.34,0.113,100.1
